This is the latest recevied weather packets stored in our database for station/object KD1KE. If no packets are shown the sender has not sent any weather packets the latest 10 day(s).
| Time | Temp. | Humidity | Pressure | Rain* | Wind** | Luminosity | Snow |
|---|---|---|---|---|---|---|---|
| 1777985649 | 16.67° C | 64% | 1007 hPa | 0 mm | - | - | - |
| 1777985138 | 16.11° C | 64% | 1007 hPa | 0 mm | - | - | - |
| 1777984988 | 16.11° C | 64% | 1006.9 hPa | 0 mm | - | - | - |
| 1777984643 | 15.56° C | 65% | 1007 hPa | 0 mm | - | - | - |
| 1777984597 | 15.56° C | 65% | 1007 hPa | 0 mm | - | - | - |
| 1777984329 | 15.56° C | 65% | 1007.1 hPa | 0 mm | - | - | - |
| 1777984059 | 15.56° C | 65% | 1007 hPa | 0 mm | - | - | - |
| 1777983668 | 15.56° C | 67% | 1007.1 hPa | 0 mm | - | - | - |
| 1777983518 | 15° C | 67% | 1007.1 hPa | 0 mm | - | - | - |
| 1777983008 | 15° C | 68% | 1007.3 hPa | 0 mm | - | - | - |
| 1777982977 | 15° C | 68% | 1007.3 hPa | 0 mm | - | - | - |
| 1777982436 | 14.44° C | 69% | 1007.2 hPa | 0 mm | - | - | - |
| 1777982348 | 14.44° C | 70% | 1007.2 hPa | 0 mm | - | - | - |
| 1777981897 | 13.89° C | 70% | 1007.2 hPa | 0 mm | - | - | - |
| 1777981689 | 13.89° C | 71% | 1007.2 hPa | 0 mm | - | - | - |
| 1777981358 | 13.33° C | 72% | 1007.2 hPa | 0 mm | - | - | - |
| 1777981028 | 13.33° C | 73% | 1007.3 hPa | 0 mm | - | - | - |
| 1777980815 | 12.78° C | 74% | 1007.3 hPa | 0 mm | - | - | - |
| 1777980368 | 12.22° C | 75% | 1007.4 hPa | 0 mm | - | - | - |
| 1777980278 | 12.22° C | 75% | 1007.4 hPa | 0 mm | - | - | - |
| 1777979739 | 12.22° C | 76% | 1007.4 hPa | 0 mm | - | - | - |
| 1777979708 | 12.22° C | 76% | 1007.4 hPa | 0 mm | - | - | - |
| 1777979197 | 11.67° C | 77% | 1007.3 hPa | 0 mm | - | - | - |
| 1777979049 | 11.67° C | 77% | 1007.3 hPa | 0 mm | - | - | - |
| 1777978660 | 11.11° C | 77% | 1007.2 hPa | 0 mm | - | - | - |
* Rain latest hour (hover to see other rain measurements)
** Current wind speed in m/s (hover to see current wind gust speed)